"Pseudo-MPEC" for J68l1JH

Created 2023 Feb 8 1:22:05 UT using Find_Orb

Click here for an explanation of pseudo-MPECs

 
 Astrometry: 
     J68l1JH*!C2023 01 30A)AstrometrySG3U,Tredacted;eZ^8clickjEu3/ZZ?Xo^Oe5XUW84
     J68l1JH !C2023 01 30PQv3*CG9*U$heredmpT8FAGV@8%APT`ef;q8OU5Pn?_M]SCkki3mW84
     J68l1JH !C2023 01 30IC3;H.lVforIWvdMnVWIFa?GE#hexplanationHE25l[XZwZhCjkW84

Station data:
(W84) Cerro Tololo-DECam  (S30.169594 W70.806420)  Chile.  Observer F. Valdes.
    Measurer S. Deen. 4.0-m reflector + CCD.

Orbital elements:  J68l1JH
   Perihelion 2023 Feb 8.64392 +/- 37.8 TT = 15:27:14 (JD 2459984.14392)
Epoch 2023 Jan 30.0 TT = JDT 2459974.5   Earth MOID: 0.3312   Ju: 0.2181
M 358.25659062 +/- 23               (J2000 ecliptic)             AutoNEOCP
n   0.18077811 +/- 0.254            Peri.  350.58156 +/- 70
a   3.09769610 +/- 2.9              Node   152.16114 +/- 38
e   0.5746013 +/- 0.247             Incl.    7.81752 +/- 4.6
P   5.45                   H 23.73  G  0.15   U 11.8  SR
q 1.31775584 +/- 0.35    Q 4.87763636 +/- 47.6
From 3 observations 2023 Jan. 30 (54.7 min); mean residual 0".08
Residuals in arcseconds: 
230130 W84  .01-  .05-    230130 W84  .03+  .15+    230130 W84  .02-  .10-    

Ephemerides (geocentric):
Date (UTC) HH   RA             Dec           delta  r     elong  mag " sig PA
---- --------  ------------   ------------  ------ ------ -----  --- --------
2023 02 08 01  10 12 33.827   +05 31 34.62  .34048 1.3178 164.7 22.7  68d   1
2023 02 08 02  10 12 37.599   +05 32 18.44  .34042 1.3178 164.7 22.7  68d   1
2023 02 08 03  10 12 41.369   +05 33 02.30  .34037 1.3178 164.8 22.7  68d   1
2023 02 08 04  10 12 45.139   +05 33 46.20  .34032 1.3178 164.8 22.7  68d   1
2023 02 08 05  10 12 48.907   +05 34 30.15  .34027 1.3178 164.8 22.7  68d   1
2023 02 08 06  10 12 52.674   +05 35 14.13  .34022 1.3178 164.9 22.7  68d   1
2023 02 08 07  10 12 56.440   +05 35 58.17  .34017 1.3178 164.9 22.7  68d   1
2023 02 08 08  10 13 00.204   +05 36 42.24  .34012 1.3178 164.9 22.7  68d   1
2023 02 08 09  10 13 03.968   +05 37 26.36  .34007 1.3178 165.0 22.7  69d   1
2023 02 08 10  10 13 07.730   +05 38 10.51  .34002 1.3178 165.0 22.7  69d   1
2023 02 08 11  10 13 11.490   +05 38 54.72  .33997 1.3178 165.1 22.7  69d   1
2023 02 08 12  10 13 15.250   +05 39 38.96  .33992 1.3178 165.1 22.7  69d   1
2023 02 08 13  10 13 19.008   +05 40 23.25  .33987 1.3178 165.1 22.7  69d   1
2023 02 08 14  10 13 22.765   +05 41 07.57  .33982 1.3178 165.2 22.7  69d   1
2023 02 08 15  10 13 26.521   +05 41 51.94  .33977 1.3178 165.2 22.7  69d   1
2023 02 08 16  10 13 30.276   +05 42 36.35  .33972 1.3178 165.2 22.7  69d   1
2023 02 08 17  10 13 34.029   +05 43 20.81  .33967 1.3178 165.3 22.7  69d   1
2023 02 08 18  10 13 37.782   +05 44 05.30  .33962 1.3178 165.3 22.7  69d   1
2023 02 08 19  10 13 41.533   +05 44 49.84  .33958 1.3178 165.3 22.7  69d   1
2023 02 08 20  10 13 45.282   +05 45 34.42  .33953 1.3178 165.4 22.7  69d   1
2023 02 08 21  10 13 49.031   +05 46 19.03  .33948 1.3178 165.4 22.7  69d   1
2023 02 08 22  10 13 52.778   +05 47 03.69  .33943 1.3178 165.4 22.7  70d   1
2023 02 08 23  10 13 56.524   +05 47 48.39  .33939 1.3178 165.5 22.7  70d   1
2023 02 09 00  10 14 00.268   +05 48 33.13  .33934 1.3178 165.5 22.7  70d   1
2023 02 09 01  10 14 04.012   +05 49 17.92  .33930 1.3178 165.6 22.7  70d   1
2023 02 09 02  10 14 07.754   +05 50 02.74  .33925 1.3178 165.6 22.7  70d   1
2023 02 09 03  10 14 11.495   +05 50 47.60  .33920 1.3178 165.6 22.7  70d   1
2023 02 09 04  10 14 15.235   +05 51 32.50  .33916 1.3178 165.7 22.7  70d   1
2023 02 09 05  10 14 18.973   +05 52 17.44  .33911 1.3178 165.7 22.7  70d   1
2023 02 09 06  10 14 22.710   +05 53 02.43  .33907 1.3178 165.7 22.7  70d   1
2023 02 09 07  10 14 26.446   +05 53 47.45  .33902 1.3178 165.8 22.7  70d   1
2023 02 09 08  10 14 30.181   +05 54 32.51  .33898 1.3178 165.8 22.7  70d   1
2023 02 09 09  10 14 33.914   +05 55 17.61  .33894 1.3178 165.8 22.7  70d   1
2023 02 09 10  10 14 37.646   +05 56 02.75  .33889 1.3178 165.9 22.7  71d   1
2023 02 09 11  10 14 41.377   +05 56 47.93  .33885 1.3178 165.9 22.7  71d   1
2023 02 09 12  10 14 45.107   +05 57 33.15  .33880 1.3178 166.0 22.7  71d   1
2023 02 09 13  10 14 48.835   +05 58 18.41  .33876 1.3178 166.0 22.7  71d   1
2023 02 09 14  10 14 52.562   +05 59 03.71  .33872 1.3178 166.0 22.7  71d   1
2023 02 09 15  10 14 56.288   +05 59 49.04  .33868 1.3178 166.1 22.7  71d   1
2023 02 09 16  10 15 00.012   +06 00 34.41  .33863 1.3178 166.1 22.7  71d   1
2023 02 09 17  10 15 03.736   +06 01 19.83  .33859 1.3178 166.1 22.7  71d   1
2023 02 09 18  10 15 07.458   +06 02 05.28  .33855 1.3178 166.2 22.7  71d   1
2023 02 09 19  10 15 11.178   +06 02 50.77  .33851 1.3178 166.2 22.7  71d   1
2023 02 09 20  10 15 14.898   +06 03 36.29  .33847 1.3178 166.2 22.7  71d   1
2023 02 09 21  10 15 18.616   +06 04 21.86  .33843 1.3178 166.3 22.7  71d   1
2023 02 09 22  10 15 22.333   +06 05 07.46  .33839 1.3178 166.3 22.7  71d   1
2023 02 09 23  10 15 26.048   +06 05 53.10  .33834 1.3178 166.3 22.7  71d   1
2023 02 10 00  10 15 29.763   +06 06 38.78  .33830 1.3178 166.4 22.7  71d   1